Leadville, CO

4:04 AM MST on February 21, 2017 (GMT -0700)
Lake County

Weather History for KLXV - February, 2013

Change the Weather History Date:

Tuesday, February 5, 2013

  Actual Average Record
Temperature  
Mean Temperature 24 °F -  
Max Temperature 42 °F 30 °F 42 °F (1984)
Min Temperature 5 °F 4 °F -20 °F (1979)
Degree Days  
Heating Degree Days 41 48  
Month to date heating degree days 223 240  
Since 1 July heating degree days 6313 6637  
Cooling Degree Days 0 0  
Month to date cooling degree days 0 0  
Year to date cooling degree days 0 0  
Moisture  
Dew Point 11 °F    
Average Humidity 58    
Maximum Humidity 83    
Minimum Humidity 33    
Precipitation  
Precipitation 0.00 in 0.02 in 0.31 in (2011)
Month to date precipitation T 0.11  
Year to date precipitation 0.67 0.73  
Sea Level Pressure  
Sea Level Pressure 30.01 in    
Wind  
Wind Speed 5 mph (NNE)    
Max Wind Speed 16 mph    
Max Gust Speed 20 mph    
Visibility 10 miles    
Events      
T = Trace of Precipitation, MM = Missing Value Source: NWS Daily Summary

Daily Weather History Graph

Daily Weather History Graph

Search for Another Location

Airport or City:

Trip Planner

Search our weather history database for the weather conditions in past years. The results will help you decide how hot, cold, wet, or windy it might be!

Date:

Astronomy

Feb. 05, 2013 Rise Set
Actual Time 7:07 AM MST 5:31 PM MST
Civil Twilight 6:40 AM MST 5:59 PM MST
Nautical Twilight 6:08 AM MST 6:30 PM MST
Astronomical Twilight 5:36 AM MST 7:02 PM MST
Moon 2:52 AM MST (2/5) 12:52 PM MST (2/5)
Length of Visible Light 11h 19m
Length of Day
10h 23m
Waning Crescent, 26% of the Moon is Illuminated
Feb 5
Waning Crescent
Feb 10
New
Feb 17
First Quarter
Feb 25
Full
Mar 4
Last Quarter

Hourly Weather History & Observations

Time (MST) Temp. Windchill Dew Point Humidity Pressure Visibility Wind Dir Wind Speed Gust Speed Precip Events Conditions
12:53 AM 12.9 °F 0.7 °F 5.0 °F 71% 30.04 in 10.0 mi NE 9.2 mph - N/A   Clear
1:53 AM 12.9 °F 2.6 °F 5.0 °F 71% 30.04 in 10.0 mi NE 6.9 mph - N/A   Clear
2:53 AM 10.0 °F -2.9 °F 5.0 °F 80% 30.06 in 10.0 mi NE 9.2 mph - N/A   Clear
3:53 AM 12.9 °F 1.6 °F 6.1 °F 74% 30.05 in 10.0 mi NNE 8.1 mph - N/A   Clear
4:53 AM 12.0 °F 0.5 °F 6.1 °F 77% 30.07 in 10.0 mi NE 8.1 mph - N/A   Clear
5:53 AM 9.0 °F -3.2 °F 5.0 °F 84% 30.10 in 10.0 mi ENE 8.1 mph - N/A   Clear
6:53 AM 10.0 °F - 3.9 °F 76% 30.13 in 10.0 mi Calm Calm - N/A   Clear
7:53 AM 14.0 °F - 5.0 °F 67% 30.14 in 10.0 mi Calm Calm - N/A   Clear
8:53 AM 23.0 °F - 8.1 °F 53% 30.12 in 10.0 mi Calm Calm - N/A   Clear
9:53 AM 26.1 °F - 8.1 °F 47% 30.10 in 10.0 mi Calm Calm - N/A   Clear
10:53 AM 33.1 °F - 12.0 °F 42% 30.06 in 10.0 mi Calm Calm - N/A   Clear
11:53 AM 39.0 °F - 12.0 °F 33% 29.99 in 10.0 mi Calm Calm - N/A   Clear
12:53 PM 39.9 °F 35.8 °F 14.0 °F 35% 29.94 in 10.0 mi North 5.8 mph - N/A   Clear
1:53 PM 39.9 °F 33.4 °F 16.0 °F 38% 29.91 in 10.0 mi WNW 10.4 mph 16.1 mph N/A   Clear
2:53 PM 37.9 °F 30.9 °F 18.0 °F 45% 29.94 in 10.0 mi WNW 10.4 mph - N/A   Clear
3:53 PM 37.9 °F 30.9 °F 17.1 °F 43% 29.92 in 10.0 mi West 10.4 mph - N/A   Clear
4:53 PM 35.1 °F 29.3 °F 17.1 °F 48% 29.94 in 10.0 mi WNW 6.9 mph - N/A   Clear
5:53 PM 30.9 °F 27.5 °F 16.0 °F 54% 30.00 in 10.0 mi Variable 3.5 mph - N/A   Clear
6:53 PM 27.0 °F 21.6 °F 15.1 °F 61% 30.02 in 10.0 mi NE 4.6 mph - N/A   Clear
7:53 PM 26.1 °F 19.4 °F 14.0 °F 60% 30.00 in 10.0 mi NNE 5.8 mph - N/A   Clear
8:53 PM 23.0 °F 13.9 °F 14.0 °F 68% 29.96 in 10.0 mi NE 8.1 mph - N/A   Clear
9:53 PM 23.0 °F 18.4 °F 12.9 °F 65% 29.92 in 10.0 mi ENE 3.5 mph - N/A   Clear
10:53 PM 19.0 °F - 12.0 °F 74% 29.89 in 10.0 mi Calm Calm - N/A   Clear
11:53 PM 16.0 °F - 10.9 °F 81% 29.86 in 10.0 mi Calm Calm - N/A   Clear